SWA6564 KBWI-KSDF

Flight info

Callsign SWA6564
Flight time 1h 28m
Altitude 38000
Route FOXHL1 OTTTO Q68 YOCKY LEDDL1
Aircraft B738/M-SDGIJ1LRWY/SB1

Departure

Time 2026-05-03 21:17
Airport Baltimore/Washington International Thurgood Marshall Airport (KBWI)

Arrival

Time 2026-05-03 22:45
Airport Louisville Muhammad Ali International Airport (KSDF)
Time Latitude Longitude Altitude Speed Heading
2026-05-03 20:38 39.17736 -76.66941 149 ft 0 kts 236°
2026-05-03 21:03 39.17744 -76.66927 149 ft 2 kts 234°
2026-05-03 21:03 39.17753 -76.66911 149 ft 1 kts 236°
2026-05-03 21:03 39.17758 -76.66901 149 ft 2 kts 222°
2026-05-03 21:03 39.17771 -76.66893 149 ft 2 kts 184°
2026-05-03 21:04 39.17786 -76.66896 149 ft 1 kts 151°
2026-05-03 21:04 39.17791 -76.66901 149 ft 1 kts 140°
2026-05-03 21:04 39.17794 -76.66903 149 ft 0 kts 143°
2026-05-03 21:07 39.17789 -76.66899 149 ft 4 kts 143°
2026-05-03 21:07 39.17751 -76.66862 149 ft 7 kts 143°
2026-05-03 21:08 39.17711 -76.66824 149 ft 7 kts 143°
2026-05-03 21:08 39.17671 -76.66784 149 ft 7 kts 140°
2026-05-03 21:08 39.17659 -76.66770 149 ft 0 kts 135°
2026-05-03 21:08 39.17611 -76.66764 147 ft 12 kts 188°
2026-05-03 21:09 39.17546 -76.66767 146 ft 7 kts 150°
2026-05-03 21:09 39.17524 -76.66675 146 ft 13 kts 92°
2026-05-03 21:09 39.17535 -76.66567 146 ft 12 kts 49°
2026-05-03 21:09 39.17578 -76.66488 146 ft 10 kts 101°
2026-05-03 21:10 39.17542 -76.66405 145 ft 11 kts 122°
2026-05-03 21:10 39.17493 -76.66313 142 ft 13 kts 124°
2026-05-03 21:10 39.17458 -76.66201 140 ft 14 kts 97°
2026-05-03 21:10 39.17449 -76.66069 138 ft 15 kts 94°
2026-05-03 21:11 39.17440 -76.65922 135 ft 17 kts 94°
2026-05-03 21:11 39.17431 -76.65771 132 ft 16 kts 95°
2026-05-03 21:11 39.17423 -76.65633 127 ft 6 kts 94°
2026-05-03 21:11 39.17422 -76.65612 126 ft 0 kts 94°
2026-05-03 21:12 39.17422 -76.65610 126 ft 1 kts 94°
2026-05-03 21:13 39.17409 -76.65544 124 ft 10 kts 129°
2026-05-03 21:13 39.17385 -76.65527 124 ft 0 kts 170°
2026-05-03 21:14 39.17359 -76.65525 124 ft 5 kts 178°
2026-05-03 21:14 39.17323 -76.65525 124 ft 6 kts 185°
2026-05-03 21:14 39.17294 -76.65541 125 ft 2 kts 220°
2026-05-03 21:14 39.17283 -76.65584 127 ft 7 kts 269°
2026-05-03 21:15 39.17283 -76.65587 127 ft 0 kts 270°
2026-05-03 21:16 39.17299 -76.65896 135 ft 72 kts 274°
2026-05-03 21:16 39.17352 -76.66830 146 ft 136 kts 274°
2026-05-03 21:16 39.17428 -76.68265 358 ft 171 kts 272°
2026-05-03 21:17 39.17477 -76.69655 1375 ft 154 kts 275°
2026-05-03 21:17 39.17535 -76.70622 1596 ft 168 kts 277°
2026-05-03 21:17 39.17677 -76.72711 2235 ft 186 kts 276°
2026-05-03 21:17 39.17765 -76.74408 2730 ft 200 kts 275°
2026-05-03 21:18 39.17930 -76.76266 3198 ft 216 kts 282°
2026-05-03 21:18 39.18286 -76.78194 3744 ft 229 kts 286°
2026-05-03 21:18 39.18714 -76.80222 4272 ft 242 kts 286°
2026-05-03 21:18 39.19150 -76.82348 4930 ft 250 kts 285°
2026-05-03 21:19 39.19576 -76.84506 5676 ft 254 kts 285°
2026-05-03 21:19 39.20004 -76.86704 6431 ft 257 kts 285°
2026-05-03 21:19 39.20438 -76.88948 7248 ft 258 kts 285°
2026-05-03 21:19 39.20870 -76.91177 8062 ft 259 kts 285°
2026-05-03 21:20 39.21301 -76.93396 8840 ft 260 kts 286°
2026-05-03 21:20 39.21741 -76.95666 9622 ft 261 kts 286°
2026-05-03 21:20 39.22057 -76.97943 10348 ft 265 kts 278°
2026-05-03 21:20 39.22153 -77.00374 10788 ft 280 kts 274°
2026-05-03 21:21 39.22158 -77.02945 11204 ft 294 kts 273°
2026-05-03 21:21 39.22159 -77.05627 11630 ft 307 kts 273°
2026-05-03 21:21 39.22177 -77.08447 11999 ft 322 kts 273°
2026-05-03 21:21 39.22095 -77.11399 12362 ft 339 kts 266°
2026-05-03 21:22 39.21429 -77.14374 12843 ft 357 kts 248°
2026-05-03 21:22 39.19975 -77.17037 13528 ft 369 kts 232°
2026-05-03 21:22 39.18189 -77.19422 14278 ft 374 kts 230°
2026-05-03 21:22 39.16386 -77.21748 15128 ft 374 kts 230°
2026-05-03 21:23 39.14525 -77.24147 15913 ft 377 kts 230°
2026-05-03 21:23 39.12696 -77.26520 16733 ft 377 kts 231°
2026-05-03 21:23 39.10862 -77.28914 17520 ft 379 kts 231°
2026-05-03 21:23 39.09005 -77.31351 18259 ft 382 kts 231°
2026-05-03 21:24 39.07197 -77.33823 18979 ft 382 kts 234°
2026-05-03 21:24 39.05588 -77.36543 19655 ft 380 kts 243°
2026-05-03 21:24 39.04336 -77.39499 20295 ft 379 kts 250°
2026-05-03 21:24 39.03376 -77.42646 20977 ft 378 kts 255°
2026-05-03 21:25 39.02570 -77.45856 21594 ft 381 kts 258°
2026-05-03 21:25 39.01815 -77.49183 22206 ft 384 kts 259°
2026-05-03 21:25 39.01078 -77.52544 22868 ft 385 kts 259°
2026-05-03 21:25 39.00354 -77.55855 23442 ft 389 kts 259°
2026-05-03 21:26 38.99620 -77.59174 24060 ft 390 kts 259°
2026-05-03 21:26 38.98867 -77.62549 24622 ft 393 kts 259°
2026-05-03 21:26 38.98108 -77.65913 25231 ft 395 kts 258°
2026-05-03 21:26 38.97339 -77.69300 25697 ft 399 kts 259°
2026-05-03 21:27 38.96554 -77.72731 26309 ft 400 kts 258°
2026-05-03 21:27 38.95765 -77.76163 26820 ft 403 kts 258°
2026-05-03 21:27 38.94977 -77.79584 27399 ft 403 kts 258°
2026-05-03 21:27 38.94181 -77.83028 27854 ft 406 kts 258°
2026-05-03 21:28 38.93377 -77.86507 28396 ft 407 kts 258°
2026-05-03 21:28 38.92571 -77.89979 28937 ft 406 kts 258°
2026-05-03 21:28 38.91767 -77.93426 29771 ft 400 kts 259°
2026-05-03 21:28 38.90981 -77.96786 30512 ft 394 kts 259°
2026-05-03 21:29 38.90192 -78.00163 31142 ft 389 kts 259°
2026-05-03 21:29 38.89409 -78.03513 31696 ft 385 kts 259°
2026-05-03 21:29 38.88641 -78.06806 32162 ft 383 kts 259°
2026-05-03 21:29 38.87871 -78.10105 32538 ft 383 kts 259°
2026-05-03 21:30 38.87098 -78.13419 32873 ft 384 kts 258°
2026-05-03 21:30 38.86372 -78.16679 33292 ft 380 kts 261°
2026-05-03 21:30 38.85816 -78.19961 33634 ft 376 kts 265°
2026-05-03 21:30 38.85503 -78.23269 34015 ft 371 kts 269°
2026-05-03 21:31 38.85375 -78.26520 34375 ft 367 kts 271°
2026-05-03 21:31 38.85336 -78.29807 34684 ft 365 kts 272°
2026-05-03 21:31 38.85331 -78.33035 34918 ft 365 kts 272°
2026-05-03 21:31 38.85310 -78.36344 35025 ft 370 kts 270°
2026-05-03 21:32 38.85060 -78.39646 35146 ft 376 kts 265°
2026-05-03 21:32 38.84606 -78.42940 35297 ft 380 kts 262°
2026-05-03 21:32 38.84051 -78.46276 35515 ft 380 kts 261°
2026-05-03 21:32 38.83476 -78.49566 35760 ft 380 kts 261°
2026-05-03 21:33 38.82899 -78.52853 36014 ft 379 kts 261°
2026-05-03 21:33 38.82333 -78.56132 36229 ft 378 kts 261°
2026-05-03 21:33 38.81773 -78.59415 36449 ft 378 kts 261°
2026-05-03 21:33 38.81209 -78.62753 36622 ft 379 kts 261°
2026-05-03 21:34 38.80096 -78.69415 36835 ft 386 kts 261°
2026-05-03 21:34 38.79536 -78.72780 36948 ft 389 kts 260°
2026-05-03 21:34 38.78974 -78.76155 37110 ft 390 kts 261°
2026-05-03 21:35 38.78403 -78.79580 37317 ft 389 kts 261°
2026-05-03 21:35 38.77842 -78.82936 37537 ft 389 kts 260°
2026-05-03 21:35 38.77270 -78.86350 37707 ft 389 kts 260°
2026-05-03 21:35 38.76706 -78.89711 37838 ft 391 kts 260°
2026-05-03 21:36 38.76133 -78.93125 37983 ft 391 kts 259°
2026-05-03 21:36 38.75557 -78.96550 38023 ft 394 kts 259°
2026-05-03 21:36 38.74399 -79.03398 38031 ft 395 kts 260°
2026-05-03 21:37 38.73243 -79.10216 38034 ft 391 kts 260°
2026-05-03 21:37 38.72089 -79.17005 38042 ft 392 kts 260°
2026-05-03 21:38 38.70931 -79.23794 38037 ft 391 kts 260°
2026-05-03 21:38 38.69789 -79.30599 38035 ft 392 kts 261°
2026-05-03 21:39 38.68675 -79.37400 38028 ft 392 kts 261°
2026-05-03 21:39 38.67551 -79.44234 38022 ft 391 kts 261°
2026-05-03 21:40 38.66429 -79.51023 38026 ft 391 kts 261°
2026-05-03 21:40 38.65308 -79.57757 38037 ft 391 kts 260°
2026-05-03 21:41 38.64173 -79.64548 38021 ft 390 kts 260°
2026-05-03 21:41 38.63029 -79.71330 38029 ft 391 kts 259°
2026-05-03 21:42 38.61833 -79.78052 38030 ft 388 kts 259°
2026-05-03 21:42 38.60613 -79.84781 38031 ft 389 kts 259°
2026-05-03 21:43 38.59393 -79.91510 38042 ft 389 kts 259°
2026-05-03 21:43 38.58179 -79.98196 38037 ft 387 kts 259°
2026-05-03 21:44 38.56964 -80.04888 38031 ft 388 kts 259°
2026-05-03 21:44 38.55892 -80.11697 38032 ft 392 kts 264°
2026-05-03 21:45 38.55674 -80.18642 38048 ft 390 kts 272°
2026-05-03 21:45 38.55987 -80.25530 38043 ft 391 kts 274°
2026-05-03 21:46 38.56385 -80.32441 38042 ft 395 kts 274°
2026-05-03 21:46 38.56769 -80.39445 38053 ft 396 kts 274°
2026-05-03 21:47 38.57131 -80.46465 38052 ft 396 kts 274°
2026-05-03 21:47 38.57478 -80.53477 38051 ft 395 kts 274°
2026-05-03 21:48 38.57546 -80.60461 38053 ft 396 kts 267°
2026-05-03 21:48 38.56692 -80.67401 38053 ft 399 kts 260°
2026-05-03 21:49 38.55385 -80.74271 38047 ft 398 kts 258°
2026-05-03 21:49 38.54024 -80.81117 38047 ft 399 kts 258°
2026-05-03 21:50 38.52677 -80.87933 38044 ft 397 kts 258°
2026-05-03 21:50 38.51333 -80.94785 38047 ft 399 kts 259°
2026-05-03 21:51 38.49992 -81.01621 38053 ft 397 kts 258°
2026-05-03 21:51 38.48659 -81.08415 38049 ft 398 kts 258°
2026-05-03 21:52 38.47311 -81.15264 38060 ft 398 kts 259°
2026-05-03 21:52 38.45968 -81.22059 38063 ft 397 kts 258°
2026-05-03 21:53 38.44616 -81.28884 38048 ft 397 kts 258°
2026-05-03 21:53 38.43258 -81.35712 38057 ft 397 kts 258°
2026-05-03 21:54 38.41906 -81.42502 38066 ft 398 kts 258°
2026-05-03 21:54 38.40543 -81.49316 38065 ft 398 kts 258°
2026-05-03 21:55 38.39180 -81.56104 38068 ft 398 kts 259°
2026-05-03 21:55 38.37811 -81.62906 38069 ft 397 kts 259°
2026-05-03 21:56 38.36435 -81.69713 38063 ft 399 kts 258°
2026-05-03 21:56 38.35048 -81.76559 38059 ft 399 kts 258°
2026-05-03 21:57 38.33367 -81.83298 38058 ft 400 kts 253°
2026-05-03 21:57 38.31451 -81.89918 38061 ft 401 kts 253°
2026-05-03 21:58 38.29521 -81.96570 38054 ft 400 kts 253°
2026-05-03 21:58 38.27629 -82.03199 38056 ft 401 kts 253°
2026-05-03 21:59 38.25747 -82.09840 38052 ft 399 kts 254°
2026-05-03 21:59 38.23863 -82.16500 38060 ft 401 kts 254°
2026-05-03 22:00 38.21989 -82.23114 38052 ft 400 kts 253°
2026-05-03 22:00 38.20098 -82.29779 38057 ft 400 kts 254°
2026-05-03 22:01 38.18215 -82.36396 38055 ft 399 kts 254°
2026-05-03 22:01 38.16325 -82.43021 38062 ft 400 kts 254°
2026-05-03 22:02 38.14434 -82.49631 38056 ft 400 kts 254°
2026-05-03 22:02 38.12535 -82.56253 38060 ft 400 kts 254°
2026-05-03 22:03 38.10636 -82.62860 38064 ft 401 kts 254°
2026-05-03 22:03 38.08726 -82.69489 38069 ft 400 kts 253°
2026-05-03 22:04 38.06812 -82.76112 38044 ft 399 kts 253°
2026-05-03 22:04 38.04906 -82.82691 38045 ft 399 kts 253°
2026-05-03 22:05 38.02994 -82.89278 38044 ft 400 kts 253°
2026-05-03 22:05 38.01057 -82.95940 38031 ft 401 kts 253°
2026-05-03 22:06 37.99135 -83.02522 38040 ft 399 kts 253°
2026-05-03 22:06 37.97214 -83.09085 38037 ft 401 kts 253°
2026-05-03 22:07 37.95282 -83.15676 38039 ft 401 kts 253°
2026-05-03 22:07 37.93336 -83.22298 38039 ft 401 kts 253°
2026-05-03 22:08 37.91398 -83.28877 38040 ft 401 kts 253°
2026-05-03 22:08 37.89451 -83.35464 38044 ft 395 kts 253°
2026-05-03 22:09 37.87543 -83.41891 38046 ft 387 kts 253°
2026-05-03 22:10 37.84692 -83.51509 38050 ft 391 kts 253°
2026-05-03 22:10 37.82796 -83.57880 38047 ft 390 kts 253°
2026-05-03 22:11 37.80884 -83.64287 38049 ft 390 kts 253°
2026-05-03 22:11 37.78962 -83.70713 38050 ft 390 kts 253°
2026-05-03 22:12 37.77050 -83.77089 38046 ft 391 kts 253°
2026-05-03 22:12 37.75122 -83.83501 38049 ft 391 kts 253°
2026-05-03 22:13 37.73198 -83.89893 38059 ft 391 kts 253°
2026-05-03 22:13 37.71270 -83.96271 38058 ft 391 kts 253°
2026-05-03 22:14 37.69323 -84.02699 37829 ft 388 kts 253°
2026-05-03 22:14 37.68367 -84.05844 37476 ft 382 kts 253°
2026-05-03 22:14 37.67419 -84.08956 36974 ft 380 kts 253°
2026-05-03 22:14 37.66486 -84.12028 36408 ft 376 kts 254°
2026-05-03 22:15 37.65552 -84.15089 35879 ft 372 kts 254°
2026-05-03 22:15 37.64675 -84.18098 35270 ft 367 kts 256°
2026-05-03 22:15 37.63862 -84.21155 34488 ft 368 kts 257°
2026-05-03 22:15 37.63092 -84.24204 33619 ft 371 kts 258°
2026-05-03 22:16 37.62311 -84.27335 32708 ft 376 kts 257°
2026-05-03 22:16 37.61527 -84.30460 31858 ft 380 kts 257°
2026-05-03 22:16 37.60717 -84.33650 31000 ft 383 kts 257°
2026-05-03 22:16 37.59898 -84.36843 30131 ft 387 kts 257°
2026-05-03 22:17 37.59069 -84.40052 29221 ft 391 kts 257°
2026-05-03 22:17 37.58229 -84.43293 28252 ft 396 kts 257°
2026-05-03 22:17 37.57454 -84.46600 27293 ft 397 kts 263°
2026-05-03 22:17 37.57153 -84.50021 26267 ft 398 kts 271°
2026-05-03 22:18 37.57173 -84.53534 24862 ft 409 kts 275°
2026-05-03 22:18 37.57319 -84.57031 24385 ft 399 kts 276°
2026-05-03 22:18 37.57466 -84.60512 23654 ft 396 kts 275°
2026-05-03 22:18 37.57586 -84.63966 22949 ft 393 kts 275°
2026-05-03 22:19 37.57672 -84.67391 22261 ft 390 kts 274°
2026-05-03 22:19 37.57728 -84.70744 21587 ft 387 kts 273°
2026-05-03 22:19 37.57762 -84.74132 20986 ft 382 kts 273°
2026-05-03 22:19 37.57777 -84.77384 20765 ft 369 kts 273°
2026-05-03 22:20 37.57782 -84.80566 20554 ft 355 kts 273°
2026-05-03 22:20 37.57780 -84.83617 20335 ft 343 kts 273°
2026-05-03 22:20 37.57776 -84.86584 19995 ft 336 kts 273°
2026-05-03 22:20 37.57773 -84.89517 19327 ft 338 kts 273°
2026-05-03 22:21 37.57771 -84.92464 18462 ft 345 kts 272°
2026-05-03 22:21 37.57766 -84.95489 17770 ft 346 kts 273°
2026-05-03 22:21 37.57761 -84.98528 17110 ft 345 kts 274°
2026-05-03 22:21 37.57941 -85.01476 16499 ft 340 kts 283°
2026-05-03 22:22 37.58747 -85.04234 16139 ft 331 kts 300°
2026-05-03 22:22 37.60151 -85.06535 15600 ft 340 kts 313°
2026-05-03 22:22 37.62008 -85.08431 14842 ft 344 kts 325°
2026-05-03 22:22 37.64143 -85.09748 14103 ft 348 kts 336°
2026-05-03 22:23 37.66436 -85.10712 13357 ft 350 kts 339°
2026-05-03 22:23 37.68797 -85.11561 12640 ft 350 kts 341°
2026-05-03 22:23 37.71104 -85.12365 12102 ft 340 kts 341°
2026-05-03 22:23 37.73322 -85.13152 11611 ft 325 kts 340°
2026-05-03 22:24 37.75459 -85.13906 11120 ft 312 kts 340°
2026-05-03 22:24 37.77492 -85.14613 10633 ft 301 kts 340°
2026-05-03 22:24 37.79481 -85.15306 10354 ft 285 kts 339°
2026-05-03 22:24 37.81330 -85.15958 10105 ft 273 kts 339°
2026-05-03 22:25 37.83017 -85.16894 9996 ft 255 kts 319°
2026-05-03 22:25 37.84126 -85.18594 10004 ft 257 kts 294°
2026-05-03 22:25 37.84475 -85.20760 10005 ft 249 kts 272°
2026-05-03 22:25 37.84317 -85.22916 10017 ft 250 kts 266°
2026-05-03 22:26 37.84021 -85.25081 9989 ft 250 kts 258°
2026-05-03 22:26 37.83172 -85.27055 10000 ft 265 kts 233°
2026-05-03 22:26 37.81625 -85.28384 9997 ft 279 kts 207°
2026-05-03 22:26 37.79649 -85.28737 9988 ft 295 kts 181°
2026-05-03 22:27 37.77631 -85.28024 9693 ft 307 kts 155°
2026-05-03 22:27 37.75991 -85.26324 9381 ft 309 kts 129°
2026-05-03 22:27 37.75029 -85.23924 9065 ft 306 kts 102°
2026-05-03 22:27 37.74930 -85.21297 8745 ft 298 kts 76°
2026-05-03 22:28 37.75645 -85.18919 8438 ft 290 kts 56°
2026-05-03 22:28 37.76780 -85.16851 8101 ft 284 kts 40°
2026-05-03 22:28 37.78411 -85.15623 7776 ft 270 kts
2026-05-03 22:28 37.80257 -85.15598 7465 ft 261 kts 342°
2026-05-03 22:29 37.81923 -85.16361 7142 ft 255 kts 328°
2026-05-03 22:29 37.83472 -85.17461 6813 ft 255 kts 327°
2026-05-03 22:29 37.85054 -85.18518 6483 ft 257 kts 329°
2026-05-03 22:29 37.86645 -85.19533 6161 ft 257 kts 329°
2026-05-03 22:30 37.88221 -85.20541 6001 ft 252 kts 329°
2026-05-03 22:30 37.89810 -85.21574 6008 ft 263 kts 328°
2026-05-03 22:30 37.91457 -85.22656 6001 ft 265 kts 329°
2026-05-03 22:30 37.93089 -85.23728 6002 ft 265 kts 328°
2026-05-03 22:31 37.94724 -85.24802 6004 ft 265 kts 328°
2026-05-03 22:31 37.96356 -85.25874 6005 ft 264 kts 328°
2026-05-03 22:31 37.97988 -85.26947 6004 ft 264 kts 328°
2026-05-03 22:31 37.99621 -85.28023 6000 ft 264 kts 328°
2026-05-03 22:32 38.01259 -85.29102 6000 ft 264 kts 328°
2026-05-03 22:32 38.02886 -85.30175 6000 ft 265 kts 328°
2026-05-03 22:32 38.04481 -85.31318 6001 ft 263 kts 321°
2026-05-03 22:32 38.05900 -85.32752 5987 ft 260 kts 314°
2026-05-03 22:33 38.07220 -85.34335 6000 ft 259 kts 312°
2026-05-03 22:33 38.08514 -85.35926 5998 ft 260 kts 312°
2026-05-03 22:33 38.09833 -85.37514 5978 ft 259 kts 313°
2026-05-03 22:33 38.11151 -85.39071 6007 ft 261 kts 313°
2026-05-03 22:34 38.12489 -85.40634 5993 ft 259 kts 314°
2026-05-03 22:34 38.13841 -85.42208 5724 ft 263 kts 314°
2026-05-03 22:34 38.15171 -85.43752 5430 ft 260 kts 314°
2026-05-03 22:34 38.16492 -85.45294 5136 ft 256 kts 313°
2026-05-03 22:35 38.17799 -85.46831 4839 ft 253 kts 313°
2026-05-03 22:35 38.19085 -85.48346 4533 ft 250 kts 314°
2026-05-03 22:35 38.20341 -85.49812 4240 ft 245 kts 314°
2026-05-03 22:35 38.21597 -85.51273 3963 ft 241 kts 314°
2026-05-03 22:36 38.22812 -85.52698 3679 ft 239 kts 313°
2026-05-03 22:36 38.24015 -85.54124 3432 ft 236 kts 313°
2026-05-03 22:36 38.25215 -85.55543 3183 ft 233 kts 313°
2026-05-03 22:36 38.26402 -85.56940 2993 ft 228 kts 313°
2026-05-03 22:37 38.27535 -85.58265 2985 ft 220 kts 313°
2026-05-03 22:37 38.28674 -85.59605 2991 ft 226 kts 313°
2026-05-03 22:37 38.29839 -85.60976 2986 ft 225 kts 313°
2026-05-03 22:37 38.30980 -85.62314 2987 ft 226 kts 313°
2026-05-03 22:38 38.32149 -85.63687 2985 ft 225 kts 313°
2026-05-03 22:38 38.33298 -85.65042 2985 ft 225 kts 312°
2026-05-03 22:38 38.34443 -85.66388 2983 ft 225 kts 312°
2026-05-03 22:38 38.35671 -85.67651 2979 ft 229 kts 324°
2026-05-03 22:39 38.37169 -85.68378 2988 ft 235 kts 341°
2026-05-03 22:39 38.38683 -85.69140 2979 ft 228 kts 318°
2026-05-03 22:39 38.39626 -85.70573 2981 ft 204 kts 287°
2026-05-03 22:39 38.39740 -85.72293 2978 ft 193 kts 253°
2026-05-03 22:40 38.39270 -85.73892 2978 ft 192 kts 244°
2026-05-03 22:40 38.38541 -85.75299 2976 ft 191 kts 220°
2026-05-03 22:40 38.37326 -85.75922 2979 ft 189 kts 187°
2026-05-03 22:40 38.36071 -85.76011 2979 ft 173 kts 196°
2026-05-03 22:41 38.34995 -85.76550 2983 ft 162 kts 208°
2026-05-03 22:41 38.33951 -85.77100 2981 ft 163 kts 201°
2026-05-03 22:41 38.32858 -85.77478 2980 ft 165 kts 192°
2026-05-03 22:41 38.31696 -85.77473 2982 ft 170 kts 175°
2026-05-03 22:42 38.30519 -85.77132 2925 ft 177 kts 171°
2026-05-03 22:42 38.29313 -85.76737 2665 ft 178 kts 171°
2026-05-03 22:42 38.28123 -85.76334 2423 ft 176 kts 170°
2026-05-03 22:42 38.26955 -85.75935 2189 ft 174 kts 170°
2026-05-03 22:43 38.25817 -85.75543 1968 ft 162 kts 171°
2026-05-03 22:43 38.24769 -85.75187 1735 ft 149 kts 172°
2026-05-03 22:43 38.23811 -85.74862 1598 ft 140 kts 172°
2026-05-03 22:43 38.22877 -85.74541 1362 ft 138 kts 172°
2026-05-03 22:44 38.21965 -85.74237 1201 ft 137 kts 173°
2026-05-03 22:44 38.21022 -85.73910 1016 ft 138 kts 171°
2026-05-03 22:44 38.20103 -85.73595 825 ft 137 kts 171°
2026-05-03 22:44 38.19161 -85.73277 603 ft 139 kts 171°
2026-05-03 22:45 38.18242 -85.72972 493 ft 130 kts 166°
2026-05-03 22:45 38.17583 -85.72744 483 ft 61 kts 165°
2026-05-03 22:45 38.17292 -85.72643 478 ft 24 kts 169°
2026-05-03 22:45 38.17157 -85.72669 477 ft 3 kts 202°
2026-05-03 22:46 38.17130 -85.72684 477 ft 4 kts 208°
2026-05-03 22:46 38.17122 -85.72691 477 ft 0 kts 211°
2026-05-03 22:47 38.17106 -85.72710 476 ft 9 kts 252°
2026-05-03 22:47 38.17156 -85.72759 477 ft 9 kts 341°
2026-05-03 22:48 38.17193 -85.72772 477 ft 2 kts 345°
2026-05-03 22:48 38.17220 -85.72780 477 ft 9 kts 345°
2026-05-03 22:48 38.17346 -85.72823 478 ft 22 kts 343°
2026-05-03 22:48 38.17493 -85.72877 481 ft 20 kts 345°
2026-05-03 22:49 38.17598 -85.72970 483 ft 18 kts 295°
2026-05-03 22:49 38.17647 -85.73122 481 ft 18 kts 290°
2026-05-03 22:49 38.17694 -85.73276 481 ft 18 kts 291°
2026-05-03 22:49 38.17740 -85.73424 481 ft 18 kts 291°
2026-05-03 22:50 38.17784 -85.73572 481 ft 18 kts 290°
2026-05-03 22:50 38.17844 -85.73773 481 ft 27 kts 293°
2026-05-03 22:50 38.17914 -85.73998 481 ft 26 kts 291°
2026-05-03 22:50 38.17969 -85.74159 481 ft 10 kts 315°
2026-05-03 22:51 38.18036 -85.74196 481 ft 11 kts 339°
2026-05-03 22:51 38.18108 -85.74197 481 ft 10 kts 48°
2026-05-03 22:51 38.18145 -85.74116 481 ft 10 kts 63°
2026-05-03 22:51 38.18181 -85.74034 481 ft 10 kts 57°
2026-05-03 22:52 38.18209 -85.73978 481 ft 5 kts 57°
2026-05-03 22:52 38.18234 -85.73949 482 ft 4 kts 26°
2026-05-03 22:52 38.18263 -85.73932 482 ft 5 kts 23°
2026-05-03 22:52 38.18293 -85.73916 482 ft 4 kts 21°
2026-05-03 22:53 38.18309 -85.73908 482 ft 0 kts 21°